Perry, FL

6:42 AM EST on February 28, 2017 (GMT -0500)
Perry

Weather History for K40J - October, 2012

Change the Weather History Date:

Tuesday, October 30, 2012

  Actual Average (KVLD) Record (KVLD)
Temperature  
Mean Temperature 50 °F -  
Max Temperature 64 °F 76 °F 86 °F (1998)
Min Temperature 37 °F 52 °F 34 °F (2008)
Degree Days  
Heating Degree Days 14    
Moisture  
Dew Point 30 °F    
Average Humidity 49    
Maximum Humidity 76    
Minimum Humidity 21    
Precipitation  
Precipitation 0.00 in - - ()
Sea Level Pressure  
Sea Level Pressure 29.88 in    
Wind  
Wind Speed 9 mph (West)    
Max Wind Speed 18 mph    
Max Gust Speed 28 mph    
Averages and records for this station are not official NWS values.
T = Trace of Precipitation, MM = Missing Value Source: NWS Daily Summary

Daily Weather History Graph

Daily Weather History Graph

Search for Another Location

Airport or City:

Trip Planner

Search our weather history database for the weather conditions in past years. The results will help you decide how hot, cold, wet, or windy it might be!

Date:

Astronomy

Oct. 30, 2012 Rise Set
Actual Time 7:47 AM EDT 6:48 PM EDT
Civil Twilight 7:22 AM EDT 7:12 PM EDT
Nautical Twilight 6:54 AM EDT 7:41 PM EDT
Astronomical Twilight 6:26 AM EDT 8:09 PM EDT
Moon 7:23 PM EDT (10/30) 8:27 AM EDT (10/30)
Length of Visible Light 11h 50m
Length of Day
11h 01m
Full, 99% of the Moon is Illuminated
Oct 30
Full
Nov 6
Last Quarter
Nov 13
New
Nov 20
First Quarter
Nov 28
Full

Hourly Weather History & Observations

Time (EDT) Temp. Windchill Dew Point Humidity Pressure Visibility Wind Dir Wind Speed Gust Speed Precip Events Conditions
12:53 AM 42.1 °F 38.4 °F 32.0 °F 67% 29.87 in - WNW 5.8 mph - N/A   Unknown
1:53 AM 44.1 °F 39.5 °F 33.1 °F 65% 29.87 in - WNW 8.1 mph - N/A   Unknown
2:53 AM 44.1 °F 39.5 °F 32.0 °F 63% 29.86 in - WNW 8.1 mph - N/A   Unknown
3:53 AM 44.1 °F 38.1 °F 32.0 °F 63% 29.86 in - NW 11.5 mph - N/A   Unknown
4:53 AM 42.1 °F 36.6 °F 30.9 °F 65% 29.86 in - WNW 9.2 mph - N/A   Unknown
5:53 AM 39.9 °F 35.1 °F 30.0 °F 68% 29.86 in - West 6.9 mph - N/A   Unknown
6:53 AM 37.9 °F 33.5 °F 30.0 °F 73% 29.88 in - West 5.8 mph - N/A   Unknown
7:53 AM 37.0 °F 31.0 °F 30.0 °F 76% 29.89 in - West 8.1 mph - N/A   Unknown
8:53 AM 43.0 °F 36.8 °F 30.9 °F 62% 29.92 in - West 11.5 mph - N/A   Unknown
9:53 AM 48.9 °F - 30.0 °F 48% 29.92 in - WNW 13.8 mph 20.7 mph N/A   Unknown
10:53 AM 52.0 °F - 28.0 °F 40% 29.91 in - West 12.7 mph - N/A   Unknown
11:53 AM 57.0 °F - 26.1 °F 30% 29.91 in - NW 16.1 mph 25.3 mph N/A   Unknown
12:53 PM 60.1 °F - 25.0 °F 26% 29.88 in - NW 12.7 mph - N/A   Unknown
1:53 PM 62.1 °F - 23.0 °F 22% 29.86 in - West 15.0 mph 27.6 mph N/A   Unknown
2:53 PM 64.0 °F - 23.0 °F 21% 29.84 in - West 15.0 mph 24.2 mph N/A   Unknown
3:53 PM 64.9 °F - 24.1 °F 21% 29.83 in - West 18.4 mph 25.3 mph N/A   Unknown
4:53 PM 64.0 °F - 25.0 °F 23% 29.83 in - West 15.0 mph 21.9 mph N/A   Unknown
5:53 PM 63.0 °F - 28.9 °F 28% 29.84 in - West 9.2 mph - N/A   Unknown
6:53 PM 55.9 °F - 30.9 °F 39% 29.85 in - West 6.9 mph - N/A   Unknown
7:53 PM 52.0 °F - 33.1 °F 49% 29.87 in - West 6.9 mph - N/A   Unknown
8:53 PM 52.0 °F - 34.0 °F 50% 29.89 in - West 6.9 mph - N/A   Unknown
9:53 PM 50.0 °F - 36.0 °F 59% 29.93 in - WSW 5.8 mph - N/A   Unknown
10:53 PM 51.1 °F - 36.0 °F 56% 29.95 in - West 5.8 mph - N/A   Unknown
11:53 PM 52.0 °F - 34.0 °F 50% 29.96 in - West 8.1 mph - N/A   Unknown